Find Starlink 35890

NORAD ID: 66835 Int'l Des: 2025-280 Owner: SPXS Country: US Constellation: starlink operational
LEOCIRCULAR

Aktuelle Ansicht

3D-Globus wird geladen...

Über Starlink 35890

Beschreibung wird geladen...

Nächste Überflüge

Passes for default location (London). Set your location on the main map for personalized predictions.

Höhenverlauf

Loading altitude history...

Zweizeiliger Elementsatz

1 66835U 25280Q 26150.05728351 .00005800 00000-0 49344-3 0 9990
2 66835 70.0004 129.3133 0003100 270.0295 90.0509 14.98333823 28267
Epoch: 30. Mai 2026 • Age: 16 hours

Aktueller Status

Höhe 585.4 km
Geschwindigkeit 7.57 km/s
Subsatellitenpunkt -40.33°S, 36.54°W
Startdatum 2. Dez. 2025
Alter 0.4 years
Typ internet

Technische Details

Klassifizierung Payload
Masse 575.00 kg
Trockenmasse 530.00 kg
Gesamtmasse 575.00 kg
Länge 0.30 m
Durchmesser 4.10 m
Spannweite 29.00 m
Form Box + pan
Hersteller SPXS
Bus-Typ Starlink V2MO
Phasenstatus In Orbit
Besitzer/Staat SPXS/US

Most Searched